Regional Weather Roundup
Issued by NWS Kansas City/Pleasant Hill, MO

Home | Current Version | Previous Version | Text Only | Print | Product List | Glossary On
Versions: 1 2 3 4 5 6 7 8 9 10 11 12 13 14 15 16 17 18 19 20 21 22 23 24 25 26 27 28 29 30 31 32 33 34 35 36 37 38 39 40 41 42 43 44 45 46 47 48 49 50
000
ASUS43 KEAX 250811
RWREAX

WEATHER ROUNDUP FOR EASTERN KANSAS AND NORTHWEST MISSOURI
NATIONAL WEATHER SERVICE KANSAS CITY/PLEASANT HILL MO
300 AM CDT FRI APR 25 2014

KSZ040-057-103>105-MOZ028-029-037-043-250900-
...KANSAS CITY METROPOLITAN AREA...

CITY           SKY/WX    TMP DP  RH WIND       PRES   REMARKS
K.C. INTL      CLEAR     46  42  86 SW6       29.87S
K.C. DOWNTOWN  CLEAR     49  44  83 S5        29.86F
LEES SUMMIT    CLEAR     46  43  89 SW6       29.87F
OLATHE - IXD   CLEAR     47  41  80 S3        29.88F
OLATHE - OJC     N/A     49  41  74 W3        29.87F
LAWRENCE       CLEAR     40  39  97 CALM      29.88S FOG

$$

MOZ001>008-011>017-020>025-030>033-038>040-044>046-053-054-250900-
...NORTHERN AND CENTRAL MISSOURI...

CITY           SKY/WX    TMP DP  RH WIND       PRES   REMARKS
ST. JOSEPH     PTCLDY    42  41  96 SE5       29.86S FOG
MOSBY          FAIR      41  41 100 CALM      29.87S FOG
WARRENSBURG    CLEAR    N/A N/A N/A W3        29.87S
WHITEMAN AFB   CLEAR     49  40  71 W3        29.86S
CLINTON        CLEAR     48  46  93 SW3       29.88S
SEDALIA        CLEAR     51  45  79 W9        29.86S
WARSAW         NOT AVBL
MARSHALL         N/A     52  48  87 W7        29.87R
CHILLICOTHE      N/A     50  44  80 CALM      29.86R
MOBERLY        PTCLDY    50  43  76 W9        29.84R
KIRKSVILLE     PTCLDY    47  43  86 NW8       29.83R

$$

MOZ041-047>049-056>058-063>065-088>090-097-250900-
...EASTERN AND SOUTHERN MISSOURI...

CITY           SKY/WX    TMP DP  RH WIND       PRES   REMARKS
ST. LOUIS INTL CLOUDY    55  49  80 W16G24    29.73R
SPIRIT OF STL  CLOUDY   N/A N/A N/A W16       29.75R
COLUMBIA       PTCLDY    50  45  83 W10       29.84R
JEFFERSON CITY MOCLDY    50  46  86 NW6       29.84R
MEXICO         CLOUDY    48  48 100 W9        29.81R
HANNIBAL       MOCLDY    50  45  81 NW13G18   29.80R
ROLLA          CLOUDY    49  46  90 W12       29.81R
LEBANON        CLEAR     48  45  87 W8        29.87R
OSAGE BEACH    CLEAR     50  45  81 W5        29.87R
SPRINGFIELD    CLEAR     47  42  83 NW5       29.89R
BRANSON        CLEAR     50  41  71 NW8       29.90S
NEVADA         CLEAR     46  43  87 SW6       29.91R
JOPLIN         CLEAR     44  42  93 S3        29.92R
WEST PLAINS    PTCLDY    51  44  77 NW10G20   29.84R

$$

IAZ060-094-KSZ022-034>040-054-083-096-NEZ052-066-093-250900-
...KANSAS...SOUTHEAST NEBRASKA AND IOWA...

CITY           SKY/WX    TMP DP  RH WIND       PRES   REMARKS
TOPEKA         FOG       43  41  93 CALM      29.88S VSB 1/4
MANHATTAN      CLEAR     40  40 100 CALM      29.87S
EMPORIA        CLEAR     47  39  74 S10       29.89R
CHANUTE        CLEAR     45  41  86 S5        29.91S
WICHITA        CLEAR     45  36  70 SW9       29.91S
OMAHA          CLEAR     45  41  86 SE6       29.82S
LINCOLN        CLEAR     41  34  76 S6        29.84F
FALLS CITY     CLEAR     44  41  89 CALM      29.84S
LAMONI         CLEAR     47  43  86 W6        29.83S
DES MOINES     CLEAR     44  39  82 SW5       29.81S

$$




USA.gov is the U.S. government's official web portal to all federal, state and local government web resources and services.